Time,TemperatureF,DewpointF,PressureIn,WindDirection,WindDirectionDegrees,WindSpeedMPH,WindSpeedGustMPH,Humidity,HourlyPrecipIn,Conditions,Clouds,dailyrainin,SoftwareType,DateUTC
2013-02-08 00:02:00,-999.0,-99.9,-100.00,SSW,208,16.0,-999.0,-999,-99.99,,,-99.99,,2013-02-08 08:02:00,
2013-02-08 00:12:00,-999.0,-99.9,-100.00,SSW,208,13.0,-999.0,-999,-99.99,,,-99.99,,2013-02-08 08:12:00,
2013-02-08 00:22:00,-999.0,-99.9,-100.00,South,191,16.0,-999.0,-999,-99.99,,,-99.99,,2013-02-08 08:22:00,
2013-02-08 00:32:00,-999.0,-99.9,-100.00,SW,219,14.0,-999.0,-999,-99.99,,,-99.99,,2013-02-08 08:32:00,
2013-02-08 00:41:00,50.0,24.0,-100.00,North,-999,-999.0,-999.0,35,-99.99,,,-99.99,,2013-02-08 08:41:00,
2013-02-08 01:03:00,-999.0,-99.9,-100.00,SW,219,14.0,-999.0,-999,-99.99,,,-99.99,,2013-02-08 09:03:00,
2013-02-08 01:11:00,-999.0,-99.9,-100.00,SSW,196,13.0,-999.0,-999,-99.99,,,-99.99,,2013-02-08 09:11:00,
2013-02-08 01:22:00,-999.0,-99.9,-100.00,SSW,196,13.0,-999.0,-999,-99.99,,,-99.99,,2013-02-08 09:22:00,
2013-02-08 01:32:00,-999.0,-99.9,-100.00,SSW,208,15.0,-999.0,-999,-99.99,,,-99.99,,2013-02-08 09:32:00,
2013-02-08 01:42:00,-999.0,-99.9,-100.00,SSW,196,13.0,-999.0,-999,-99.99,,,-99.99,,2013-02-08 09:42:00,
2013-02-08 01:52:00,-999.0,-99.9,-100.00,SSW,196,13.0,-999.0,-999,-99.99,,,-99.99,,2013-02-08 09:52:00,
2013-02-08 02:01:00,-999.0,-99.9,-100.00,SSW,202,12.0,-999.0,-999,-99.99,,,-99.99,,2013-02-08 10:01:00,
2013-02-08 02:22:00,-999.0,-99.9,-100.00,SW,225,14.0,-999.0,-999,-99.99,,,-99.99,,2013-02-08 10:22:00,
2013-02-08 02:32:00,-999.0,-99.9,-100.00,South,191,13.0,-999.0,-999,-99.99,,,-99.99,,2013-02-08 10:32:00,
2013-02-08 02:42:00,-999.0,-99.9,-100.00,South,191,15.0,-999.0,-999,-99.99,,,-99.99,,2013-02-08 10:42:00,
2013-02-08 02:52:00,-999.0,-99.9,-100.00,SW,225,19.0,-999.0,-999,-99.99,,,-99.99,,2013-02-08 10:52:00,
2013-02-08 03:02:00,-999.0,-99.9,-100.00,SW,219,20.0,-999.0,-999,-99.99,,,-99.99,,2013-02-08 11:02:00,
2013-02-08 03:11:00,47.0,30.0,-100.00,SSW,208,19.0,-999.0,51,-99.99,,,-99.99,,2013-02-08 11:11:00,
2013-02-08 03:22:00,-999.0,-99.9,-100.00,SSW,208,18.0,-999.0,-999,-99.99,,,-99.99,,2013-02-08 11:22:00,
2013-02-08 03:32:00,-999.0,-99.9,-100.00,SSW,213,16.0,-999.0,-999,-99.99,,,-99.99,,2013-02-08 11:32:00,
2013-02-08 03:42:00,-999.0,-99.9,-100.00,SW,219,18.0,-999.0,-999,-99.99,,,-99.99,,2013-02-08 11:42:00,
2013-02-08 03:53:00,-999.0,-99.9,-100.00,SW,219,18.0,-999.0,-999,-99.99,,,-99.99,,2013-02-08 11:53:00,
2013-02-08 04:02:00,-999.0,-99.9,-100.00,SW,230,18.0,-999.0,-999,-99.99,,,-99.99,,2013-02-08 12:02:00,
2013-02-08 04:11:00,-999.0,-99.9,-100.00,SW,230,23.0,-999.0,-999,-99.99,,,-99.99,,2013-02-08 12:11:00,
2013-02-08 04:22:00,-999.0,-99.9,-100.00,SW,230,24.0,-999.0,-999,-99.99,,,-99.99,,2013-02-08 12:22:00,
2013-02-08 04:33:00,-999.0,-99.9,-100.00,SW,219,21.0,-999.0,-999,-99.99,,,-99.99,,2013-02-08 12:33:00,
2013-02-08 04:42:00,-999.0,-99.9,-100.00,SSW,213,19.0,-999.0,-999,-99.99,,,-99.99,,2013-02-08 12:42:00,
2013-02-08 04:53:00,-999.0,-99.9,-100.00,SSW,213,21.0,-999.0,-999,-99.99,,,-99.99,,2013-02-08 12:53:00,
2013-02-08 05:02:00,-999.0,-99.9,-100.00,SW,219,23.0,-999.0,-999,-99.99,,,-99.99,,2013-02-08 13:02:00,
2013-02-08 05:12:00,-999.0,-99.9,-100.00,SW,219,24.0,-999.0,-999,-99.99,,,-99.99,,2013-02-08 13:12:00,
2013-02-08 05:22:00,-999.0,-99.9,-100.00,SW,219,20.0,-999.0,-999,-99.99,,,-99.99,,2013-02-08 13:22:00,
2013-02-08 05:43:00,-999.0,-99.9,-100.00,SW,225,26.0,-999.0,-999,-99.99,,,-99.99,,2013-02-08 13:43:00,
2013-02-08 05:52:00,-999.0,-99.9,-100.00,SW,225,25.0,-999.0,-999,-99.99,,,-99.99,,2013-02-08 13:52:00,
2013-02-08 06:02:00,-999.0,-99.9,-100.00,SW,230,22.0,-999.0,-999,-99.99,,,-99.99,,2013-02-08 14:02:00,
2013-02-08 06:12:00,-999.0,-99.9,-100.00,SW,225,22.0,-999.0,-999,-99.99,,,-99.99,,2013-02-08 14:12:00,
2013-02-08 06:22:00,-999.0,-99.9,-100.00,SW,225,21.0,-999.0,-999,-99.99,,,-99.99,,2013-02-08 14:22:00,
2013-02-08 06:33:00,-999.0,-99.9,-100.00,SSW,208,23.0,-999.0,-999,-99.99,,,-99.99,,2013-02-08 14:33:00,
2013-02-08 06:42:00,-999.0,-99.9,-100.00,SW,225,20.0,-999.0,-999,-99.99,,,-99.99,,2013-02-08 14:42:00,
2013-02-08 07:12:00,-999.0,-99.9,-100.00,SW,219,29.0,-999.0,-999,-99.99,,,-99.99,,2013-02-08 15:12:00,
2013-02-08 07:22:00,-999.0,-99.9,-100.00,SW,219,29.0,-999.0,-999,-99.99,,,-99.99,,2013-02-08 15:22:00,
2013-02-08 07:32:00,-999.0,-99.9,-100.00,SW,219,27.0,-999.0,-999,-99.99,,,-99.99,,2013-02-08 15:32:00,
2013-02-08 07:42:00,-999.0,-99.9,-100.00,SW,230,28.0,-999.0,-999,-99.99,,,-99.99,,2013-02-08 15:42:00,
2013-02-08 07:52:00,-999.0,-99.9,-100.00,SW,230,27.0,-999.0,-999,-99.99,,,-99.99,,2013-02-08 15:52:00,
2013-02-08 08:02:00,-999.0,-99.9,-100.00,SW,230,29.0,-999.0,-999,-99.99,,,-99.99,,2013-02-08 16:02:00,
2013-02-08 08:12:00,-999.0,-99.9,-100.00,SSW,208,28.0,-999.0,-999,-99.99,,,-99.99,,2013-02-08 16:12:00,
2013-02-08 08:22:00,-999.0,-99.9,-100.00,SSW,208,28.0,-999.0,-999,-99.99,,,-99.99,,2013-02-08 16:22:00,
2013-02-08 08:33:00,-999.0,-99.9,-100.00,SSW,213,30.0,-999.0,-999,-99.99,,,-99.99,,2013-02-08 16:33:00,
2013-02-08 08:42:00,-999.0,-99.9,-100.00,SW,219,32.0,-999.0,-999,-99.99,,,-99.99,,2013-02-08 16:42:00,
2013-02-08 08:52:00,-999.0,-99.9,-100.00,SW,219,32.0,-999.0,-999,-99.99,,,-99.99,,2013-02-08 16:52:00,
2013-02-08 09:04:00,-999.0,-99.9,-100.00,SW,236,29.0,-999.0,-999,-99.99,,,-99.99,,2013-02-08 17:04:00,
2013-02-08 09:13:00,-999.0,-99.9,-100.00,SW,219,29.0,-999.0,-999,-99.99,,,-99.99,,2013-02-08 17:13:00,
2013-02-08 09:23:00,-999.0,-99.9,-100.00,SW,219,28.0,-999.0,-999,-99.99,,,-99.99,,2013-02-08 17:23:00,
2013-02-08 09:33:00,-999.0,-99.9,-100.00,SSW,213,33.0,-999.0,-999,-99.99,,,-99.99,,2013-02-08 17:33:00,
2013-02-08 09:42:00,-999.0,-99.9,-100.00,SW,225,29.0,-999.0,-999,-99.99,,,-99.99,,2013-02-08 17:42:00,
2013-02-08 09:53:00,-999.0,-99.9,-100.00,SW,225,28.0,-999.0,-999,-99.99,,,-99.99,,2013-02-08 17:53:00,
2013-02-08 10:03:00,-999.0,-99.9,-100.00,SW,230,30.0,-999.0,-999,-99.99,,,-99.99,,2013-02-08 18:03:00,
2013-02-08 10:12:00,-999.0,-99.9,-100.00,SSW,213,29.0,-999.0,-999,-99.99,,,-99.99,,2013-02-08 18:12:00,
2013-02-08 10:25:00,-999.0,-99.9,-100.00,SSW,213,30.0,-999.0,-999,-99.99,,,-99.99,,2013-02-08 18:25:00,
2013-02-08 10:36:00,-999.0,-99.9,-100.00,SW,230,26.0,-999.0,-999,-99.99,,,-99.99,,2013-02-08 18:36:00,
2013-02-08 10:44:00,-999.0,-99.9,-100.00,SW,225,24.0,-999.0,-999,-99.99,,,-99.99,,2013-02-08 18:44:00,
2013-02-08 10:53:00,-999.0,-99.9,-100.00,SW,225,25.0,-999.0,-999,-99.99,,,-99.99,,2013-02-08 18:53:00,
2013-02-08 11:02:00,-999.0,-99.9,-100.00,SW,225,25.0,-999.0,-999,-99.99,,,-99.99,,2013-02-08 19:02:00,
2013-02-08 11:12:00,-999.0,-99.9,-100.00,SSW,213,26.0,-999.0,-999,-99.99,,,-99.99,,2013-02-08 19:12:00,
2013-02-08 11:22:00,-999.0,-99.9,-100.00,SSW,213,23.0,-999.0,-999,-99.99,,,-99.99,,2013-02-08 19:22:00,
2013-02-08 11:33:00,-999.0,-99.9,-100.00,SW,230,24.0,-999.0,-999,-99.99,,,-99.99,,2013-02-08 19:33:00,
2013-02-08 11:42:00,-999.0,-99.9,-100.00,SW,236,22.0,-999.0,-999,-99.99,,,-99.99,,2013-02-08 19:42:00,
2013-02-08 11:53:00,-999.0,-99.9,-100.00,SW,236,24.0,-999.0,-999,-99.99,,,-99.99,,2013-02-08 19:53:00,
2013-02-08 12:02:00,-999.0,-99.9,-100.00,SW,230,22.0,-999.0,-999,-99.99,,,-99.99,,2013-02-08 20:02:00,
2013-02-08 12:12:00,-999.0,-99.9,-100.00,SSW,213,23.0,-999.0,-999,-99.99,,,-99.99,,2013-02-08 20:12:00,
2013-02-08 12:22:00,-999.0,-99.9,-100.00,SSW,213,23.0,-999.0,-999,-99.99,,,-99.99,,2013-02-08 20:22:00,
2013-02-08 12:32:00,-999.0,-99.9,-100.00,SW,219,0.0,-999.0,-999,-99.99,,,-99.99,,2013-02-08 20:32:00,
2013-02-08 12:42:00,-999.0,-99.9,-100.00,SW,225,21.0,-999.0,-999,-99.99,,,-99.99,,2013-02-08 20:42:00,
2013-02-08 12:53:00,-999.0,-99.9,-100.00,SW,225,21.0,-999.0,-999,-99.99,,,-99.99,,2013-02-08 20:53:00,
2013-02-08 13:02:00,-999.0,-99.9,-100.00,SSW,213,22.0,-999.0,-999,-99.99,,,-99.99,,2013-02-08 21:02:00,
2013-02-08 13:12:00,-999.0,-99.9,-100.00,SSW,208,21.0,-999.0,-999,-99.99,,,-99.99,,2013-02-08 21:12:00,
2013-02-08 13:22:00,-999.0,-99.9,-100.00,SSW,208,21.0,-999.0,-999,-99.99,,,-99.99,,2013-02-08 21:22:00,
2013-02-08 13:33:00,-999.0,-99.9,-100.00,SW,219,17.0,-999.0,-999,-99.99,,,-99.99,,2013-02-08 21:33:00,
2013-02-08 13:42:00,-999.0,-99.9,-100.00,WSW,241,16.0,-999.0,-999,-99.99,,,-99.99,,2013-02-08 21:42:00,
2013-02-08 13:52:00,-999.0,-99.9,-100.00,SW,219,20.0,-999.0,-999,-99.99,,,-99.99,,2013-02-08 21:52:00,
2013-02-08 14:02:00,-999.0,-99.9,-100.00,SW,219,20.0,-999.0,-999,-99.99,,,-99.99,,2013-02-08 22:02:00,
2013-02-08 14:12:00,-999.0,-99.9,-100.00,SSW,213,23.0,-999.0,-999,-99.99,,,-99.99,,2013-02-08 22:12:00,
2013-02-08 14:22:00,-999.0,-99.9,-100.00,SSW,213,23.0,-999.0,-999,-99.99,,,-99.99,,2013-02-08 22:22:00,
2013-02-08 14:32:00,-999.0,-99.9,-100.00,SW,219,17.0,-999.0,-999,-99.99,,,-99.99,,2013-02-08 22:32:00,
2013-02-08 14:42:00,-999.0,-99.9,-100.00,SW,225,16.0,-999.0,-999,-99.99,,,-99.99,,2013-02-08 22:42:00,
2013-02-08 14:52:00,-999.0,-99.9,-100.00,SW,225,16.0,-999.0,-999,-99.99,,,-99.99,,2013-02-08 22:52:00,
2013-02-08 15:02:00,-999.0,-99.9,-100.00,SW,230,15.0,-999.0,-999,-99.99,,,-99.99,,2013-02-08 23:02:00,
2013-02-08 15:12:00,-999.0,-99.9,-100.00,SW,225,15.0,-999.0,-999,-99.99,,,-99.99,,2013-02-08 23:12:00,
2013-02-08 15:22:00,-999.0,-99.9,-100.00,SW,225,15.0,-999.0,-999,-99.99,,,-99.99,,2013-02-08 23:22:00,
2013-02-08 15:32:00,-999.0,-99.9,-100.00,SW,225,16.0,-999.0,-999,-99.99,,,-99.99,,2013-02-08 23:32:00,
2013-02-08 15:42:00,-999.0,-99.9,-100.00,SW,225,13.0,-999.0,-999,-99.99,,,-99.99,,2013-02-08 23:42:00,
2013-02-08 15:52:00,-999.0,-99.9,-100.00,WSW,241,12.0,-999.0,-999,-99.99,,,-99.99,,2013-02-08 23:52:00,
2013-02-08 16:02:00,-999.0,-99.9,-100.00,SW,230,15.0,-999.0,-999,-99.99,,,-99.99,,2013-02-09 00:02:00,
2013-02-08 16:12:00,-999.0,-99.9,-100.00,SW,230,13.0,-999.0,-999,-99.99,,,-99.99,,2013-02-09 00:12:00,
2013-02-08 16:22:00,-999.0,-99.9,-100.00,SW,219,14.0,-999.0,-999,-99.99,,,-99.99,,2013-02-09 00:22:00,
2013-02-08 16:32:00,-999.0,-99.9,-100.00,WSW,247,13.0,-999.0,-999,-99.99,,,-99.99,,2013-02-09 00:32:00,
2013-02-08 16:42:00,-999.0,-99.9,-100.00,WSW,253,14.0,-999.0,-999,-99.99,,,-99.99,,2013-02-09 00:42:00,
2013-02-08 16:52:00,-999.0,-99.9,-100.00,WSW,253,15.0,-999.0,-999,-99.99,,,-99.99,,2013-02-09 00:52:00,
2013-02-08 17:02:00,-999.0,-99.9,-100.00,SW,236,15.0,-999.0,-999,-99.99,,,-99.99,,2013-02-09 01:02:00,
2013-02-08 17:12:00,-999.0,-99.9,-100.00,SW,236,12.0,-999.0,-999,-99.99,,,-99.99,,2013-02-09 01:12:00,
2013-02-08 17:22:00,-999.0,-99.9,-100.00,SW,236,12.0,-999.0,-999,-99.99,,,-99.99,,2013-02-09 01:22:00,
2013-02-08 17:32:00,-999.0,-99.9,-100.00,SSW,208,13.0,-999.0,-999,-99.99,,,-99.99,,2013-02-09 01:32:00,
2013-02-08 17:42:00,-999.0,-99.9,-100.00,SW,219,10.0,-999.0,-999,-99.99,,,-99.99,,2013-02-09 01:42:00,
2013-02-08 17:52:00,-999.0,-99.9,-100.00,SW,219,10.0,-999.0,-999,-99.99,,,-99.99,,2013-02-09 01:52:00,
2013-02-08 18:02:00,-999.0,-99.9,-100.00,SSW,213,8.0,-999.0,-999,-99.99,,,-99.99,,2013-02-09 02:02:00,
2013-02-08 18:11:00,-999.0,-99.9,-100.00,SSW,213,8.0,-999.0,-999,-99.99,,,-99.99,,2013-02-09 02:11:00,
2013-02-08 18:22:00,-999.0,-99.9,-100.00,SSW,202,8.0,-999.0,-999,-99.99,,,-99.99,,2013-02-09 02:22:00,
2013-02-08 18:32:00,-999.0,-99.9,-100.00,SSW,202,8.0,-999.0,-999,-99.99,,,-99.99,,2013-02-09 02:32:00,
2013-02-08 19:02:00,-999.0,-99.9,-100.00,SSW,208,6.0,-999.0,-999,-99.99,,,-99.99,,2013-02-09 03:02:00,
2013-02-08 19:11:00,-999.0,-99.9,-100.00,SSW,208,6.0,-999.0,-999,-99.99,,,-99.99,,2013-02-09 03:11:00,
2013-02-08 19:22:00,-999.0,-99.9,-100.00,SSW,208,6.0,-999.0,-999,-99.99,,,-99.99,,2013-02-09 03:22:00,
2013-02-08 19:32:00,-999.0,-99.9,-100.00,SW,230,5.0,-999.0,-999,-99.99,,,-99.99,,2013-02-09 03:32:00,
2013-02-08 19:53:00,-999.0,-99.9,-100.00,SW,225,8.0,-999.0,-999,-99.99,,,-99.99,,2013-02-09 03:53:00,
2013-02-08 20:12:00,-999.0,-99.9,-100.00,SSW,196,7.0,-999.0,-999,-99.99,,,-99.99,,2013-02-09 04:12:00,
2013-02-08 20:24:00,-999.0,-99.9,-100.00,SSW,196,7.0,-999.0,-999,-99.99,,,-99.99,,2013-02-09 04:24:00,
2013-02-08 20:32:00,-999.0,-99.9,-100.00,SSW,213,7.0,-999.0,-999,-99.99,,,-99.99,,2013-02-09 04:32:00,
2013-02-08 21:02:00,-999.0,-99.9,-100.00,SSW,213,6.0,-999.0,-999,-99.99,,,-99.99,,2013-02-09 05:02:00,
2013-02-08 21:12:00,-999.0,-99.9,-100.00,SSW,208,8.0,-999.0,-999,-99.99,,,-99.99,,2013-02-09 05:12:00,
2013-02-08 21:22:00,-999.0,-99.9,-100.00,SSW,208,8.0,-999.0,-999,-99.99,,,-99.99,,2013-02-09 05:22:00,
2013-02-08 21:32:00,-999.0,-99.9,-100.00,SW,219,10.0,-999.0,-999,-99.99,,,-99.99,,2013-02-09 05:32:00,
2013-02-08 21:41:00,39.0,25.0,-100.00,North,-999,-999.0,-999.0,56,-99.99,,,-99.99,,2013-02-09 05:41:00,
2013-02-08 21:52:00,-999.0,-99.9,-100.00,SSW,213,6.0,-999.0,-999,-99.99,,,-99.99,,2013-02-09 05:52:00,
2013-02-08 22:11:00,-999.0,-99.9,-100.00,SSW,202,7.0,-999.0,-999,-99.99,,,-99.99,,2013-02-09 06:11:00,
2013-02-08 22:22:00,-999.0,-99.9,-100.00,SSW,202,7.0,-999.0,-999,-99.99,,,-99.99,,2013-02-09 06:22:00,
2013-02-08 22:32:00,-999.0,-99.9,-100.00,SSW,202,8.0,-999.0,-999,-99.99,,,-99.99,,2013-02-09 06:32:00,
2013-02-08 23:11:00,-999.0,-99.9,-100.00,SSW,202,9.0,-999.0,-999,-99.99,,,-99.99,,2013-02-09 07:11:00,
2013-02-08 23:22:00,-999.0,-99.9,-100.00,SSW,202,11.0,-999.0,-999,-99.99,,,-99.99,,2013-02-09 07:22:00,
2013-02-08 23:42:00,38.0,28.0,-100.00,North,-999,-999.0,-999.0,66,-99.99,,,0.00,,2013-02-09 07:42:00,
2013-02-08 23:52:00,-999.0,-99.9,-100.00,SSW,213,11.0,-999.0,-999,-99.99,,,-99.99,,2013-02-09 07:52:00,